DW8578 Weather Reports


Display with metric or nautical units.
time (UTC)temp
F
wind
direction
speed
MPH
gust
MPH
rain 1hr
in
rain 24hr
in
rain mn
in
humidity
%
barometer
mb
20260906234520 96 28 5.0 9.0 0.00 0.00 0.00 45 1009.1
20260906233019 98 243 3.0 7.0 0.00 0.00 0.00 43 1009.0
20260906231518 99 28 1.0 6.0 0.00 0.00 0.00 41 1009.0
20260906230018 98 28 0.0 7.0 0.00 0.00 0.00 41 1009.1
20260906224521 98 28 1.0 5.0 0.00 0.00 0.00 42 1009.1
20260906223016 98 28 2.0 7.0 0.00 0.00 0.00 41 1009.3
20260906221515 99 28 1.0 10.0 0.00 0.00 0.00 40 1009.5
20260906220012 99 28 4.0 10.0 0.00 0.00 0.00 41 1009.4
20260906214517 98 28 1.0 8.0 0.00 0.00 0.00 41 1009.6
20260906213011 97 28 3.0 9.0 0.00 0.00 0.00 42 1009.9
20260906211506 98 28 4.0 12.0 0.00 0.00 0.00 42 1010.1
20260906210005 97 158 3.0 12.0 0.00 0.00 0.00 45 1010.1
20260906204506 97 224 3.0 8.0 0.00 0.00 0.00 44 1010.4
20260906203008 98 165 0.0 8.0 0.00 0.00 0.00 43 1010.5
20260906201501 97 28 6.0 10.0 0.00 0.00 0.00 46 1010.7
20260906200100 97 28 4.0 10.0 0.00 0.00 0.00 45 1010.9
20260906194600 96 28 6.0 12.0 0.00 0.00 0.00 47 1011.0
20260906193059 97 238 3.0 9.0 0.00 0.00 0.00 47 1011.1
20260906191600 97 189 0.0 7.0 0.00 0.00 0.00 46 1011.3
20260906190109 97 28 3.0 7.0 0.00 0.00 0.00 47 1011.4
20260906184556 96 28 3.0 8.0 0.00 0.00 0.00 48 1011.7
20260906183106 95 28 3.0 10.0 0.00 0.00 0.00 49 1011.9
20260906181552 95 28 3.0 9.0 0.00 0.00 0.00 51 1012.2
20260906180108 94 28 2.0 6.0 0.00 0.00 0.00 53 1012.4
20260906174544 92 28 2.0 6.0 0.00 0.00 0.00 57 1012.6
20260906173041 91 349 3.0 6.0 0.00 0.00 0.00 60 1012.9
20260906171538 89 6 3.0 7.0 0.00 0.00 0.00 59 1013.4
20260906170106 89 341 0.0 5.0 0.00 0.00 0.00 59 1013.5
20260906164532 88 333 1.0 5.0 0.00 0.00 0.00 63 1013.6
20260906163029 87 330 0.0 4.0 0.00 0.00 0.00 67 1013.7
20260906161524 84 356 1.0 7.0 0.00 0.00 0.00 75 1013.5
20260906160024 82 28 2.0 5.0 0.00 0.00 0.00 80 1013.5
20260906154522 81 28 0.0 4.0 0.00 0.00 0.00 80 1013.5
20260906153023 81 251 0.0 0.0 0.00 0.00 0.00 83 1013.2
20260906151520 80 28 0.0 0.0 0.00 0.00 0.00 81 1013.1
20260906150016 80 28 0.0 5.0 0.00 0.00 0.00 82 1012.9
20260906144522 79 212 2.0 7.0 0.00 0.00 0.00 83 1012.9
20260906143014 79 28 2.0 6.0 0.00 0.00 0.00 85 1012.8
20260906141513 78 210 0.0 0.0 0.00 0.00 0.00 88 1012.7
20260906140011 77 209 0.0 0.0 0.00 0.00 0.00 88 1012.5
20260906134521 77 209 0.0 0.0 0.00 0.00 0.00 88 1012.4
20260906133009 76 209 0.0 0.0 0.00 0.00 0.00 89 1012.3
20260906131508 76 209 0.0 0.0 0.00 0.00 0.00 88 1012.2
20260906130003 76 0.0 0.0 0.00 0.00 0.00 88 1012.1
20260906124601 76 0.0 0.0 0.00 0.00 0.00 88 1011.9
20260906123132 76 0.0 0.0 0.00 0.00 0.00 87 1011.8
20260906121551 76 0.0 0.0 0.00 0.00 0.00 86 1011.4
20260906120046 76 0.0 0.0 0.00 0.00 0.00 85 1011.2
20260906114542 76 0.0 0.0 0.00 0.00 0.00 85 1011.0
20260906113041 76 0.0 0.0 0.00 0.00 0.00 84 1011.0
20260906111535 76 0.0 0.0 0.00 0.00 0.00 84 1010.9
20260906110028 77 0.0 0.0 0.00 0.00 0.00 84 1010.6
20260906104529 77 0.0 0.0 0.00 0.00 0.00 84 1010.4
20260906103020 77 0.0 0.0 0.00 0.00 0.00 83 1010.6
20260906101516 77 0.0 0.0 0.00 0.00 0.00 82 1010.5
20260906100012 77 0.0 0.0 0.00 0.00 0.00 82 1010.4
20260906094507 78 0.0 0.0 0.00 0.00 0.00 80 1010.6
20260906093002 78 0.0 0.0 0.00 0.00 0.00 80 1010.5
20260906091605 78 0.0 0.0 0.00 0.00 0.00 80 1010.4
20260906090053 79 0.0 0.0 0.00 0.00 0.00 80 1010.2
20260906084551 79 0.0 0.0 0.00 0.00 0.00 79 1010.2
20260906083047 79 0.0 0.0 0.00 0.00 0.00 79 1010.2
20260906081544 80 0.0 0.0 0.00 0.00 0.00 78 1010.4
20260906080038 80 0.0 0.0 0.00 0.00 0.00 78 1010.6
20260906074536 80 0.0 0.0 0.00 0.00 0.00 77 1010.7
20260906073027 80 0.0 0.0 0.00 0.00 0.00 76 1010.6
20260906071523 80 0.0 0.0 0.00 0.00 0.00 76 1010.8
20260906070018 81 0.0 0.0 0.00 0.00 0.00 76 1011.0
20260906064514 81 0.0 0.0 0.00 0.00 0.00 76 1011.1
20260906063010 81 0.0 0.0 0.00 0.00 0.00 75 1011.0
20260906061506 81 0.0 0.0 0.00 0.00 0.00 74 1011.0
20260906060002 82 0.0 0.0 0.00 0.00 0.00 73 1011.2
20260906054558 82 0.0 0.0 0.00 0.00 0.00 73 1011.2
20260906053103 82 0.0 0.0 0.00 0.00 0.00 72 1011.3
20260906051551 83 0.0 0.0 0.00 0.00 0.00 71 1011.4
20260906050051 83 0.0 0.0 0.00 0.00 0.00 70 1011.5
20260906044539 84 0.0 0.0 0.00 0.00 0.00 69 1011.6
20260906043035 84 0.0 0.0 0.00 0.00 0.00 67 1011.5
20260906041532 85 0.0 0.0 0.00 0.00 0.00 66 1011.4
20260906040027 85 0.0 0.0 0.00 0.00 0.00 64 1011.4
20260906034522 86 0.0 0.0 0.00 0.00 0.00 62 1011.4
20260906033024 86 0.0 0.0 0.00 0.00 0.00 61 1011.3
20260906031516 86 0.0 0.0 0.00 0.00 0.00 60 1010.9
20260906030017 87 0.0 0.0 0.00 0.00 0.00 60 1010.8
20260906024505 88 0.0 0.0 0.00 0.00 0.00 59 1010.5
20260906023102 88 0.0 0.0 0.00 0.00 0.00 58 1010.2
20260906021604 89 0.0 0.0 0.00 0.00 0.00 57 1009.8
20260906020104 89 0.0 0.0 0.00 0.00 0.00 57 1009.6
20260906014547 90 0.0 0.0 0.00 0.00 0.00 56 1009.4
20260906013051 91 0.0 0.0 0.00 0.00 0.00 54 1009.3
20260906011556 92 0.0 0.0 0.00 0.00 0.00 53 1009.1
20260906010040 93 0.0 0.0 0.00 0.00 0.00 49 1009.0
20260906004530 94 0.0 0.0 0.00 0.00 0.00 46 1008.9
20260906003026 95 0.0 0.0 0.00 0.00 0.00 44 1009.0
20260906001526 96 28 4.0 6.0 0.00 0.00 0.00 42 1008.9
20260906000037 97 28 3.0 6.0 0.00 0.00 0.00 41 1008.8